Location: Pine Mountain Observatory
(43.7910°N, 120.9377°W)
Time: 00:51:10
(UTC-07:00)

Explorer 11/Cluster Stage 4 - Pass Details

Date: 30 May 2019
Orbit: 467 x 1260 km, 28.8° (Epoch: 25 June)

Event Time Altitude Azimuth Distance (km) Brightness Sun altitude
Rises 02:03:59 0° 234° (SW) 3,982 - -22.9°
Reaches altitude 10° 02:07:48 10° 219° (SW) 2,893 - -22.7°
Maximum altitude 02:12:34 19° 177° (S) 2,098 - -22.4°
Drops below altitude 10° 02:16:46 10° 133° (SE) 2,502 - -22.2°
Exits shadow 02:17:11 - 130° (SE) 2,595 9.0 -22.2°
Sets 02:19:46 0° 116° (ESE) 3,284 9.7 -22.0°
